Regional Weather Roundup
Issued by NWS

Home | Current Version | Previous Version | Graphics & Text | Print | Product List | Glossary On
Versions: 1 2 3 4 5 6 7 8 9 10 11 12 13 14 15 16 17 18 19 20 21 22 23 24 25 26 27 28 29 30 31 32 33 34 35 36 37 38 39 40 41 42 43 44 45 46 47 48 49 50
000
ASUS45 KPSR 291110
RWRAZ

ARIZONA REGIONAL HOURLY WEATHER ROUNDUP
NATIONAL WEATHER SERVICE PHOENIX AZ
400 AM MST SUN MAR 29 2015

NOTE: FAIR INDICATES FEW OR NO CLOUDS BELOW 12,000 FEET WITH NO
SIGNIFICANT WEATHER AND/OR OBSTRUCTIONS TO VISIBILITY.

AZZ001>003-036-291200-
NORTHWEST ARIZONA

CITY           SKY/WX    TMP DP  RH WIND       PRES   REMARKS
BULLHEAD CITY  CLEAR     66  25  20 CALM      29.97S
KINGMAN        CLEAR     54  20  26 SE7       30.10S
$$

AZZ004>008-015-016-018-291200-
NORTH CENTRAL ARIZONA

CITY           SKY/WX    TMP DP  RH WIND       PRES   REMARKS
GRAND CANYON   CLEAR     27  20  75 NE5       30.29S WCI  22
WILLIAMS       CLEAR     36  21  55 S9        30.35S WCI  29
PRESCOTT       CLEAR     43  25  49 S7        30.21S
FLAGSTAFF      CLEAR     40  19  43 W3        30.29F
PAYSON         CLEAR     48  23  37 CALM      30.22S
PAGE           CLEAR     57  23  26 SE5       30.14S
$$

AZZ009>014-017-291200-
NORTHEAST ARIZONA

CITY           SKY/WX    TMP DP  RH WIND       PRES   REMARKS
WINSLOW        CLEAR     49  20  31 CALM      30.21R
SAINT JOHNS    PTCLDY    47  10  22 S6        30.23S
WINDOW ROCK    CLEAR     41  16  36 CALM      30.27S
SHOW LOW       CLEAR     41  10  28 N3        30.30S
$$

AZZ023-291200-
GREATER PHOENIX AREA

CITY           SKY/WX    TMP DP  RH WIND       PRES   REMARKS
PHOENIX        CLEAR     67  30  25 E6        29.97S
BUCKEYE        PTCLDY    55  32  41 CALM      29.99R
LUKE AFB       CLEAR     60  40  47 N1        29.97S
DEER VALLEY    CLEAR     67  28  23 N6        29.99S
SCOTTSDALE     CLEAR     63  35  35 CALM      30.00S
MESA-GATEWAY   CLEAR     61  23  23 E6        30.01S
$$

AZZ027-028-291200-
SOUTHWEST MARICOPA COUNTY AND PINAL COUNTY

CITY           SKY/WX    TMP DP  RH WIND       PRES   REMARKS
CASA GRANDE    PTCLDY    57  27  30 CALM      29.99S
GILA BEND      FAIR      65  20  17 S9        29.96F
$$

AZZ503-504-507>509-291200-
SOUTHEAST ARIZONA

CITY           SKY/WX    TMP DP  RH WIND       PRES   REMARKS
TUCSON         PTCLDY    61  23  23 SE9       30.09S
DAVIS-MONTHAN  PTCLDY    58  27  30 E6        30.07F
NOGALES        PTCLDY    53  23  31 E3        30.15S
SIERRA VISTA   PTCLDY    57  20  24 SW8       30.19S
DOUGLAS        CLEAR     46  26  45 E6        30.16S
SAFFORD        CLEAR     49  17  28 E3        30.10R
$$

AZZ020-021-025-026-031-291200-
SOUTHWEST ARIZONA

CITY           SKY/WX    TMP DP  RH WIND       PRES   REMARKS
YUMA           MOCLDY    70  34  26 CALM      29.92F
$$

CAZ031-033-041-043-047-048-061-291200-
SOUTHERN CALIFORNIA

CITY           SKY/WX    TMP DP  RH WIND       PRES   REMARKS
DOWNTOWN L.A.  FOG       56  55  97 CALM      30.02F VSB 1/4
L.A. AIRPORT   FOG       55  55 100 W6        30.04R VSB 1/4
SAN DIEGO      MOCLDY    63  57  81 CALM      30.04F
BURBANK        CLEAR     59  41  51 CALM      30.02F
ONTARIO        MOCLDY    59  41  51 W3        30.02F
RIVERSIDE      PTCLDY    59  43  55 CALM      30.02F
PALM SPRINGS   MOCLDY    70  40  33 S3        29.94F
EL CENTRO NAS  PTCLDY    71  26  18 SW5       29.90F
IMPERIAL       PTCLDY    69  29  22 CALM      29.90S
BLYTHE         CLEAR     66  30  26 NW8       29.93S
NEEDLES        CLEAR     66  24  20 CALM      29.96S
$$

NVZ020-UTZ003-291200-
SOUTHERN NEVADA-UTAH

CITY           SKY/WX    TMP DP  RH WIND       PRES   REMARKS
LAS VEGAS      CLEAR     64  20  18 S10       29.99R
SALT LAKE CITY CLEAR     44  26  49 NW6       30.27S
$$

NMZ009-TXZ055-291200-
NEW MEXICO-WEST TEXAS

CITY           SKY/WX    TMP DP  RH WIND       PRES   REMARKS
ALBUQUERQUE    CLEAR     48  14  25 SE8       30.19R
EL PASO        CLEAR     62   9  12 SE9       30.10R
$$


........................KEY........................
SKY/WX - SKY CONDITION/WEATHER
TMP    - TEMPERATURE IN FAHRENHEIT
DP     - DEW POINT IN FAHRENHEIT
RH     - RELATIVE HUMIDITY IN PERCENT
WIND   - DIRECTION AND SPEED IN MILES PER HOUR (MPH)
VRB    - VARIABLE WIND DIRECTION
PRES   - MEAN SEA LEVEL PRESSURE IN INCHES OF MERCURY
         F - FALLING PRESSURE   R - RISING PRESSURE
         S - STEADY PRESSURE
VSB    - VISIBILITY IN MILES
HX     - HEAT INDEX IN FAHRENHEIT
WCI    - WIND CHILL INDEX IN FAHRENHEIT
TC     - TEMPERATURE IN CELSIUS WHICH IS ALSO KNOWN AS
         TEMPERATURE IN CENTIGRADE
AFB    - AIR FORCE BASE
         LUKE AFB IS LUKE AIR FORCE BASE
         DAVIS-MONTHAN IS DAVIS-MONTHAN AIR FORCE BASE
NAS    - NAVAL AIR STATION
         EL CENTRO NAS IS EL CENTRO NAVAL AIR STATION
N/A    - NOT AVAILABLE



USA.gov is the U.S. government's official web portal to all federal, state and local government web resources and services.